Regional Weather Roundup
Issued by NWS Cleveland, OH

Home | Current Version | Previous Version | Graphics & Text | Print | Product List | Glossary On
Versions: 1 2 3 4 5 6 7 8 9 10 11 12 13 14 15 16 17 18 19 20 21 22 23 24 25 26 27 28 29 30 31 32 33 34 35 36 37 38 39 40 41 42 43 44 45 46 47 48 49 50
000
ASUS41 KCLE 201612
RWRCLE
OHIO REGIONAL WEATHER ROUNDUP
NATIONAL WEATHER SERVICE WILMINGTON, OH
1200 PM EDT SUN MAY 20 2018

NOTE: "FAIR" INDICATES FEW OR NO CLOUDS BELOW 12,000 FEET WITH NO
SIGNIFICANT WEATHER AND/OR OBSTRUCTIONS TO VISIBILITY.

OHZ001>008-015>018-024>027-034-035-043-044-201700-
   NORTHWEST OHIO

CITY           SKY/WX    TMP DP  RH WIND       PRES   REMARKS
DEFIANCE       CLOUDY    66  58  75 VRB6      30.15R
FINDLAY        CLOUDY    67  58  72 CALM      30.13R
TOLEDO EXPRESS CLOUDY    66  60  81 CALM      30.14R
TOLEDO EXEC    CLOUDY    62  58  86 E7        30.16R
LIMA           FAIR      67  59  75 NE5       30.14R
$$

OHZ009>014-019>023-028>033-038-089-201700-
   NORTHEAST OHIO

CITY           SKY/WX    TMP DP  RH WIND       PRES   REMARKS
CLE-HOPKINS    CLOUDY    57  53  86 N12       30.18R
CLE-LAKEFRONT  CLOUDY    54  51  90 N12       30.16R FOG
CUY CO. ARPT   CLOUDY    55  54  94 N7        30.17R
LORAIN-ELYRIA  CLOUDY    58  50  75 N8        30.16R
ASHTABULA      CLOUDY    54  52  93 NW12      30.15R
AKRON-CANTON   CLOUDY    68  58  70 NW5       30.11S
WOOSTER        CLOUDY    66  60  81 N12       30.14R
MANSFIELD      CLOUDY    64  59  83 N9        30.14R
YOUNGSTOWN     CLOUDY    66  59  78 NW8       30.11S
$$

OHZ042-051>053-060>062-070>072-077>081-201700-
  SOUTHWEST OHIO

CITY           SKY/WX    TMP DP  RH WIND       PRES   REMARKS
CINC-COVINGTON PTSUNNY   80  65  59 W5        30.12R
CINC-LUNKEN    FAIR      81  69  67 N3        30.11R
HAMILTON       PTSUNNY   75  30  19 NW8       30.14R
DAYTON         FAIR      69  64  84 VRB5      30.15R
WRIGHT-PAT AFB FAIR      71  63  75 N6        30.13R
DAYTON GENERAL FAIR      76  65  68 VRB3      30.12R
WILMINGTON     PTSUNNY   75  69  81 N3        30.12R
$$

OHZ036-037-039>041-045>050-054>059-063>069-073>076-082>088-201700-
  CENTRAL AND SOUTHEAST OHIO

CITY           SKY/WX    TMP DP  RH WIND       PRES   REMARKS
COLUMBUS       PTSUNNY   71  60  68 VRB7      30.12R
OSU AIRPORT    CLOUDY    66  60  81 N8        30.12R
BOLTON FIELD   PTSUNNY   68  63  83 NW6       30.14R
RICKENBACK AFB FAIR      72  63  74 MISG      30.11R
NEWARK         FAIR      70  61  73 NW7       30.11R
MARION         CLOUDY    66  58  75 N9        30.15R
LANCASTER      FAIR      74  65  73 W9        30.11S
ZANESVILLE     PTSUNNY   74  63  68 NW6       30.10R
NEW PHILLY     CLOUDY    70  60  70 W7        30.10R
$$




USA.gov is the U.S. government's official web portal to all federal, state and local government web resources and services.